Find Comstar 201

NORAD ID: 8838 Int'l Des: 1976-042 Owner: COM Country: US operational
HEOCIRCULAR

Live-Position

3D-Globus wird geladen...

Über Comstar 201

Beschreibung wird geladen...

Nächste Überflüge

Passes for default location (London). Set your location on the main map for personalized predictions.

Höhenverlauf

Loading altitude history...

Zweizeiliger Elementsatz

1 08838U 76042A 26105.56617154 -.00000108 00000-0 00000-0 0 9995
2 08838 8.1022 305.0810 0005082 3.5382 4.7810 0.99816736119959
Epoch: 15. Apr. 2026 • Age: 47 hours

Aktueller Status

Höhe 35893.2 km
Geschwindigkeit 3.07 km/s
Subsatellitenpunkt -0.80°S, 97.32°W
Typ other

Most Searched